Location: São Paulo
(23.5507°S, 46.6334°W)
Time: 10:01:12
(UTC-03:00)

Transit 4A - Pass Details

Date: 24 February 2026
Orbit: 864 x 977 km, 66.8° (Epoch: 11 March)

Event Time Altitude Azimuth Distance (km) Brightness Sun altitude
Rises 14:33:44 0° 307° (NW) 3,661 11.5 55.0°
Reaches altitude 10° 14:36:49 10° 293° (WNW) 2,712 11.1 54.3°
Maximum altitude 14:41:49 24° 241° (WSW) 1,874 10.3 53.2°
Drops below altitude 10° 14:46:48 10° 188° (S) 2,685 10.4 52.1°
Sets 14:49:52 0° 174° (S) 3,616 10.8 51.4°
